Weather History for Lemoore (Abandoned) Willett A, CO

Change the Weather History Date:

Monday, March 3, 2014

  Actual Average (KBJC) Record (KBJC)
Temperature  
Mean Temperature 39 °F -  
Max Temperature 63 °F 45 °F 71 °F (2009)
Min Temperature 15 °F 25 °F 5 °F (2002)
Degree Days  
Heating Degree Days 26    
Moisture  
Dew Point 22 °F    
Average Humidity 56    
Maximum Humidity 88    
Minimum Humidity 17    
Precipitation  
Precipitation 0.00 in - - ()
Sea Level Pressure  
Sea Level Pressure 29.98 in    
Wind  
Wind Speed 3 mph (SW)    
Max Wind Speed 15 mph    
Max Gust Speed 21 mph    
Visibility 9 miles    
Events      
Averages and records for this station are not official NWS values.
T = Trace of Precipitation, MM = Missing Value Source: NWS Daily Summary

Daily Weather History Graph

Daily Weather History Graph

Search for Another Location

Airport:

Trip Planner

Search our weather history database for the weather conditions in past years. The results will help you decide how hot, cold, wet, or windy it might be!

Date:

Astronomy

Mar. 03, 2014 Rise Set
Actual Time 6:30 AM MST 5:54 PM MST
Civil Twilight 6:03 AM MST 6:21 PM MST
Nautical Twilight 5:32 AM MST 6:53 PM MST
Astronomical Twilight 5:00 AM MST 7:24 PM MST
Moon 7:40 AM MST (3/3) 9:00 PM MST (3/3)
Length of Visible Light 12h 18m
Length of Day
11h 23m
Waxing Crescent, 8% of the Moon is Illuminated
Mar 3
Waxing Crescent
Mar 8
First Quarter
Mar 16
Full
Mar 23
Last Quarter
Mar 30
New

Hourly Weather History & Observations

Time (MST) Temp. Windchill Dew Point Humidity Pressure Visibility Wind Dir Wind Speed Gust Speed Precip Events Conditions
12:15 AM 15.8 °F - 12.7 °F 88% 30.09 in 7.0 mi Calm Calm - N/A   Clear
12:35 AM 16.3 °F - 13.1 °F 87% 30.08 in 7.0 mi Calm Calm - N/A   Clear
12:55 AM 16.0 °F 10.4 °F 12.6 °F 86% 30.08 in 7.0 mi WSW 3.5 mph - N/A   Clear
1:15 AM 16.3 °F 10.8 °F 13.1 °F 87% 30.07 in 7.0 mi SW 3.5 mph - N/A   Clear
1:35 AM 16.7 °F - 13.6 °F 88% 30.07 in 7.0 mi Calm Calm - N/A   Clear
1:55 AM 17.6 °F 12.3 °F 14.2 °F 86% 30.05 in 7.0 mi South 3.5 mph - N/A   Clear
2:15 AM 18.1 °F 10.0 °F 14.9 °F 87% 30.04 in 7.0 mi SSW 5.8 mph - N/A   Clear
2:35 AM 19.4 °F - 16.3 °F 88% 30.02 in 7.0 mi Calm Calm - N/A   Clear
2:55 AM 20.7 °F - 17.4 °F 87% 30.01 in 7.0 mi Calm Calm - N/A   Clear
3:15 AM 20.8 °F 14.4 °F 17.6 °F 87% 30.00 in 7.0 mi North 4.6 mph - N/A   Clear
3:35 AM 20.8 °F 14.4 °F 17.6 °F 87% 30.00 in 7.0 mi WSW 4.6 mph - N/A   Clear
3:55 AM 20.8 °F 16.0 °F 17.4 °F 87% 30.00 in 7.0 mi North 3.5 mph - N/A   Clear
4:15 AM 21.2 °F - 17.6 °F 86% 30.00 in 7.0 mi Calm Calm - N/A   Clear
4:35 AM 21.2 °F - 17.6 °F 86% 30.01 in 7.0 mi Calm Calm - N/A   Clear
4:55 AM 21.0 °F 16.2 °F 17.8 °F 87% 30.01 in 7.0 mi South 3.5 mph - N/A   Clear
5:15 AM 21.0 °F 16.2 °F 17.6 °F 87% 30.00 in 7.0 mi NNW 3.5 mph - N/A   Clear
5:35 AM 20.7 °F - 17.2 °F 87% 30.00 in 7.0 mi Calm Calm - N/A   Clear
5:55 AM 21.0 °F - 17.4 °F 86% 30.01 in 7.0 mi Calm Calm - N/A   Clear
6:15 AM 21.4 °F - 17.8 °F 86% 30.02 in 7.0 mi Calm Calm - N/A   Clear
6:35 AM 21.6 °F - 18.1 °F 87% 30.02 in 7.0 mi Calm Calm - N/A   Clear
6:55 AM 22.1 °F 17.4 °F 18.5 °F 86% 30.02 in 7.0 mi SW 3.5 mph - N/A   Clear
7:15 AM 22.8 °F 18.2 °F 19.4 °F 87% 30.01 in 7.0 mi WSW 3.5 mph - N/A   Clear
7:35 AM 24.4 °F 17.5 °F 20.3 °F 84% 30.01 in 7.0 mi SSE 5.8 mph - N/A   Clear
7:55 AM 25.7 °F 20.1 °F 21.0 °F 82% 30.02 in 7.0 mi NW 4.6 mph - N/A   Clear
8:15 AM 27.3 °F 19.9 °F 22.3 °F 81% 30.02 in 7.0 mi East 6.9 mph - N/A   Clear
8:35 AM 28.2 °F - 22.6 °F 80% 30.01 in 7.0 mi Calm Calm - N/A   Clear
8:55 AM 31.6 °F - 24.3 °F 74% 30.00 in 7.0 mi Calm Calm - N/A   Clear
9:15 AM 35.1 °F - 25.3 °F 68% 30.00 in 7.0 mi Calm Calm - N/A   Clear
9:35 AM 37.0 °F 32.4 °F 27.7 °F 69% 30.00 in 7.0 mi East 5.8 mph - N/A   Clear
9:55 AM 40.1 °F 36.9 °F 29.3 °F 65% 30.00 in 10.0 mi South 4.6 mph - N/A   Scattered Clouds
10:15 AM 45.3 °F - 31.8 °F 59% 30.00 in 10.0 mi Calm Calm - N/A   Scattered Clouds
10:35 AM 48.7 °F - 31.6 °F 52% 30.00 in 10.0 mi SSW 5.8 mph - N/A   Clear
10:55 AM 48.9 °F - 31.5 °F 51% 29.99 in 10.0 mi ESE 4.6 mph - N/A   Clear
11:15 AM 52.2 °F - 32.4 °F 47% 29.98 in 10.0 mi Calm Calm - N/A   Clear
11:35 AM 51.3 °F - 32.5 °F 49% 29.98 in 10.0 mi SSW 3.5 mph - N/A   Clear
11:55 AM 55.8 °F - 33.4 °F 43% 29.98 in 10.0 mi ENE 8.1 mph - N/A   Clear
12:15 PM 51.4 °F - 31.8 °F 47% 29.96 in 10.0 mi ESE 6.9 mph - N/A   Clear
12:35 PM 53.8 °F - 32.2 °F 44% 29.96 in 10.0 mi SE 5.8 mph - N/A   Clear
12:55 PM 54.5 °F - 31.6 °F 42% 29.96 in 10.0 mi East 6.9 mph - N/A   Clear
1:15 PM 57.9 °F - 31.8 °F 37% 29.95 in 10.0 mi East 6.9 mph - N/A   Clear
1:35 PM 59.9 °F - 29.8 °F 32% 29.93 in 10.0 mi ENE 6.9 mph - N/A   Clear
1:55 PM 63.0 °F - 24.3 °F 23% 29.92 in 10.0 mi NW 6.9 mph - N/A   Clear
2:15 PM 63.3 °F - 21.2 °F 20% 29.92 in 10.0 mi West 5.8 mph 18.4 mph N/A   Clear
2:35 PM 63.3 °F - 19.2 °F 18% 29.93 in 10.0 mi WSW 11.5 mph 20.7 mph N/A   Clear
2:55 PM 63.7 °F - 18.1 °F 17% 29.93 in 10.0 mi West 8.1 mph - N/A   Clear
3:15 PM 61.0 °F - 18.3 °F 19% 29.93 in 10.0 mi West 6.9 mph - N/A   Clear
3:35 PM 63.9 °F - 17.2 °F 17% 29.92 in 10.0 mi Calm Calm - N/A   Clear
3:55 PM 59.9 °F - 16.0 °F 18% 29.92 in 10.0 mi NW 12.7 mph - N/A   Clear
4:15 PM 58.8 °F - 20.1 °F 22% 29.94 in 10.0 mi North 8.1 mph - N/A   Clear
4:35 PM 59.4 °F - 22.1 °F 24% 29.94 in 10.0 mi NE 6.9 mph - N/A   Clear
4:55 PM 60.1 °F - 23.4 °F 24% 29.95 in 10.0 mi Calm Calm - N/A   Clear
5:15 PM 58.5 °F - 23.0 °F 26% 29.95 in 10.0 mi East 6.9 mph - N/A   Clear
5:35 PM 55.6 °F - 23.0 °F 28% 29.96 in 10.0 mi South 6.9 mph - N/A   Clear
5:55 PM 52.7 °F - 21.7 °F 30% 29.96 in 10.0 mi WSW 6.9 mph - N/A   Clear
6:15 PM 52.5 °F - 20.8 °F 29% 29.96 in 10.0 mi SW 4.6 mph - N/A   Clear
6:35 PM 47.5 °F - 21.6 °F 36% 29.96 in 10.0 mi WSW 3.5 mph - N/A   Clear
6:55 PM 49.5 °F - 20.3 °F 32% 29.96 in 10.0 mi SW 6.9 mph - N/A   Clear
7:15 PM 48.4 °F - 22.8 °F 37% 29.95 in 10.0 mi SW 8.1 mph - N/A   Clear
7:35 PM 45.9 °F 44.6 °F 23.7 °F 42% 29.96 in 10.0 mi WSW 3.5 mph - N/A   Clear
7:55 PM 45.0 °F - 23.0 °F 42% 29.96 in 10.0 mi Calm Calm - N/A   Clear
8:15 PM 43.7 °F - 23.5 °F 45% 29.96 in 10.0 mi Calm Calm - N/A   Clear
8:35 PM 42.1 °F 40.2 °F 24.3 °F 49% 29.96 in 10.0 mi WNW 3.5 mph - N/A   Clear
8:55 PM 39.2 °F - 25.2 °F 57% 29.96 in 10.0 mi Calm Calm - N/A   Clear
9:15 PM 39.4 °F - 25.0 °F 56% 29.97 in 10.0 mi Calm Calm - N/A   Clear
9:35 PM 41.5 °F - 24.1 °F 50% 29.96 in 10.0 mi Calm Calm - N/A   Clear
9:55 PM 46.2 °F 43.3 °F 21.9 °F 38% 29.95 in 10.0 mi SE 5.8 mph - N/A   Clear
10:15 PM 44.6 °F 42.2 °F 23.0 °F 43% 29.95 in 10.0 mi West 4.6 mph - N/A   Clear
10:35 PM 43.0 °F - 23.4 °F 46% 29.95 in 10.0 mi Calm Calm - N/A   Clear
10:55 PM 42.1 °F - 23.9 °F 49% 29.95 in 10.0 mi Calm Calm - N/A   Clear
11:15 PM 51.8 °F - 21.6 °F 31% 29.93 in 10.0 mi West 15.0 mph - N/A   Clear
11:35 PM 52.7 °F - 21.0 °F 29% 29.94 in 10.0 mi WSW 10.4 mph 19.6 mph N/A   Clear
11:55 PM 51.4 °F - 21.0 °F 30% 29.93 in 10.0 mi WSW 12.7 mph - N/A   Clear